Location: ??????????
(44.2167°N, 135.5333°E)
Time: 14:09:23
(UTC+00:00)

Cosmos 1814 Rocket - Pass Details

Date: 15 June 2025
Orbit: 740 x 783 km, 74.1° (Epoch: 15 July)

Event Time Altitude Azimuth Distance (km) Brightness Sun altitude
Rises 16:11:45 0° 338° (NNW) 3,279 8.1 -20.4°
Reaches altitude 10° 16:14:09 10° 338° (NNW) 2,348 7.2 -20.3°
Maximum altitude 16:19:30 86° 252° (WSW) 791 4.0 -19.9°
Enters shadow 16:22:01 32° 164° (SSE) 1,307 4.8 -19.8°
